EDW354 LSZH-LGMK

Flight info

Callsign EDW354
Flight time N/A
Altitude 35000
Route DEGES Z2 XEBIX L607 ELMEM N606 GIRIS DCT TISAX DCT NAXAV DCT NIVAS DCT UPIRO DCT PEVAL DCT LOS DCT EBITA DCT ZDA DCT SPL DCT KONUV DCT LASTI DCT LEBGA DCT PETAK DCT PINDO UL607 KEA UL995 VARIX
Aircraft A320/M-SDE3FGHIRWY/LB1

Departure

Time 2026-04-30 09:50
Airport Zürich Airport (LSZH)

Arrival

Time N/A
Airport Mykonos Island National Airport (LGMK)
Time Latitude Longitude Altitude Speed Heading
2026-04-30 09:34 47.45177 8.55711 1406 ft 0 kts 186°
2026-04-30 09:39 47.45179 8.55712 1406 ft 1 kts 186°
2026-04-30 09:40 47.45196 8.55715 1410 ft 3 kts 189°
2026-04-30 09:40 47.45216 8.55720 1406 ft 3 kts 194°
2026-04-30 09:40 47.45236 8.55729 1409 ft 3 kts 202°
2026-04-30 09:40 47.45253 8.55742 1413 ft 3 kts 224°
2026-04-30 09:41 47.45263 8.55761 1412 ft 2 kts 271°
2026-04-30 09:41 47.45262 8.55771 1410 ft 0 kts 275°
2026-04-30 09:43 47.45267 8.55693 1406 ft 10 kts 275°
2026-04-30 09:44 47.45274 8.55599 1409 ft 8 kts 276°
2026-04-30 09:44 47.45299 8.55500 1408 ft 19 kts 300°
2026-04-30 09:44 47.45433 8.55348 1402 ft 26 kts 335°
2026-04-30 09:44 47.45596 8.55234 1400 ft 25 kts 330°
2026-04-30 09:45 47.45762 8.55121 1400 ft 27 kts 336°
2026-04-30 09:45 47.45934 8.55001 1396 ft 28 kts 334°
2026-04-30 09:45 47.46115 8.54878 1388 ft 29 kts 335°
2026-04-30 09:45 47.46301 8.54747 1384 ft 30 kts 334°
2026-04-30 09:46 47.46494 8.54617 1386 ft 30 kts 334°
2026-04-30 09:46 47.46680 8.54490 1385 ft 30 kts 334°
2026-04-30 09:46 47.46877 8.54365 1382 ft 31 kts 335°
2026-04-30 09:46 47.46978 8.54264 1382 ft 11 kts 321°
2026-04-30 09:47 47.46996 8.54239 1384 ft 0 kts 315°
2026-04-30 09:47 47.46997 8.54239 1384 ft 1 kts 315°
2026-04-30 09:48 47.47026 8.54125 1384 ft 21 kts 264°
2026-04-30 09:48 47.46947 8.54025 1382 ft 15 kts 166°
2026-04-30 09:48 47.46921 8.54042 1381 ft 0 kts 154°
2026-04-30 09:49 47.46887 8.54066 1382 ft 27 kts 156°
2026-04-30 09:50 47.46480 8.54346 1383 ft 99 kts 155°
2026-04-30 09:50 47.45683 8.54897 1398 ft 153 kts 155°
2026-04-30 09:50 47.44623 8.55587 1703 ft 172 kts 152°
2026-04-30 09:50 47.43493 8.56317 2279 ft 182 kts 148°
2026-04-30 09:51 47.42672 8.57636 2908 ft 179 kts 105°
2026-04-30 09:51 47.42639 8.59537 3210 ft 197 kts 72°
2026-04-30 09:51 47.43379 8.61235 3704 ft 205 kts 44°
2026-04-30 09:51 47.44423 8.62695 4423 ft 209 kts 46°
2026-04-30 09:52 47.45501 8.64213 5152 ft 214 kts 49°
2026-04-30 09:52 47.46264 8.66048 5747 ft 214 kts 76°
2026-04-30 09:52 47.46404 8.68239 6502 ft 216 kts 90°
2026-04-30 09:52 47.46428 8.70578 6811 ft 239 kts 89°
2026-04-30 09:53 47.46463 8.73149 7179 ft 259 kts 89°
2026-04-30 09:53 47.46504 8.75878 7862 ft 264 kts 89°
2026-04-30 09:53 47.46561 8.78578 8682 ft 268 kts 87°
2026-04-30 09:53 47.46651 8.81393 9492 ft 272 kts 88°
2026-04-30 09:54 47.46448 8.84150 10246 ft 277 kts 100°
2026-04-30 09:54 47.46044 8.87012 10618 ft 295 kts 101°
2026-04-30 09:54 47.45600 8.90095 10792 ft 319 kts 101°
2026-04-30 09:54 47.45119 8.93413 11022 ft 341 kts 101°
2026-04-30 09:55 47.44616 8.96884 11533 ft 349 kts 101°
2026-04-30 09:55 47.44107 9.00414 12158 ft 354 kts 100°
2026-04-30 09:55 47.43595 9.03995 12798 ft 358 kts 100°
2026-04-30 09:55 47.43076 9.07603 13441 ft 362 kts 100°
2026-04-30 09:56 47.42548 9.11268 14087 ft 366 kts 100°
2026-04-30 09:56 47.42013 9.14959 14660 ft 370 kts 101°
2026-04-30 09:56 47.41468 9.18689 15259 ft 373 kts 100°
2026-04-30 09:56 47.41087 9.22481 15835 ft 374 kts 88°
2026-04-30 09:57 47.41539 9.26245 16408 ft 374 kts 68°
2026-04-30 09:57 47.42515 9.29814 17006 ft 376 kts 69°
2026-04-30 09:57 47.43222 9.33550 17627 ft 379 kts 74°
2026-04-30 09:57 47.43847 9.37339 18249 ft 381 kts 75°
2026-04-30 09:58 47.44455 9.41171 18806 ft 384 kts 75°
2026-04-30 09:58 47.45045 9.45026 19339 ft 386 kts 75°
2026-04-30 09:58 47.45625 9.48906 19867 ft 387 kts 76°
2026-04-30 09:58 47.46200 9.52796 20386 ft 389 kts 76°
2026-04-30 09:59 47.47136 9.60706 21375 ft 395 kts 85°
2026-04-30 09:59 47.46806 9.68874 22313 ft 400 kts 91°
2026-04-30 10:00 47.46354 9.77109 23166 ft 404 kts 91°
2026-04-30 10:00 47.46126 9.81256 23582 ft 406 kts 91°
2026-04-30 10:01 47.45661 9.89598 24315 ft 409 kts 91°
2026-04-30 10:01 47.45424 9.93787 24650 ft 410 kts 91°
2026-04-30 10:01 47.45184 9.97991 24981 ft 411 kts 91°
2026-04-30 10:02 47.44697 10.06430 25646 ft 413 kts 91°
2026-04-30 10:02 47.44450 10.10665 25976 ft 414 kts 91°
2026-04-30 10:02 47.44202 10.14903 26306 ft 415 kts 91°
2026-04-30 10:02 47.44030 10.17384 26462 ft 416 kts 95°
2026-04-30 10:03 47.43448 10.21541 26729 ft 420 kts 97°
2026-04-30 10:03 47.42876 10.25769 27011 ft 420 kts 96°
2026-04-30 10:03 47.42342 10.30019 27290 ft 421 kts 96°
2026-04-30 10:03 47.41807 10.34339 27581 ft 422 kts 96°
2026-04-30 10:04 47.41247 10.38535 27846 ft 425 kts 99°
2026-04-30 10:04 47.40228 10.42733 28090 ft 434 kts 110°
2026-04-30 10:04 47.38680 10.46534 28327 ft 444 kts 121°
2026-04-30 10:04 47.36592 10.49929 28500 ft 452 kts 132°
2026-04-30 10:05 47.34034 10.52721 28695 ft 464 kts 144°
2026-04-30 10:05 47.31191 10.55005 28917 ft 467 kts 146°
2026-04-30 10:05 47.28329 10.57266 29243 ft 466 kts 146°
2026-04-30 10:05 47.25472 10.59523 29561 ft 466 kts 146°
2026-04-30 10:06 47.22618 10.61779 29852 ft 466 kts 146°
2026-04-30 10:06 47.19766 10.64030 30195 ft 465 kts 146°
2026-04-30 10:06 47.16888 10.66201 30449 ft 467 kts 150°
2026-04-30 10:06 47.13844 10.67940 30669 ft 470 kts 154°
2026-04-30 10:07 47.10778 10.69614 30892 ft 471 kts 154°
2026-04-30 10:07 47.07710 10.71291 31107 ft 471 kts 155°
2026-04-30 10:07 47.04638 10.72971 31350 ft 471 kts 155°
2026-04-30 10:07 47.01563 10.74657 31593 ft 472 kts 155°
2026-04-30 10:08 46.98488 10.76366 31785 ft 473 kts 155°
2026-04-30 10:08 46.95424 10.78099 32044 ft 472 kts 155°
2026-04-30 10:08 46.92363 10.79843 32265 ft 472 kts 155°
2026-04-30 10:08 46.89298 10.81591 32521 ft 473 kts 155°
2026-04-30 10:09 46.86235 10.83332 32760 ft 472 kts 155°
2026-04-30 10:09 46.83167 10.85065 32955 ft 473 kts 155°
2026-04-30 10:09 46.80122 10.86861 33192 ft 471 kts 151°
2026-04-30 10:09 46.77268 10.89166 33419 ft 467 kts 143°
2026-04-30 10:10 46.74691 10.92023 33633 ft 464 kts 134°
2026-04-30 10:10 46.72383 10.95286 33827 ft 462 kts 131°
2026-04-30 10:10 46.70094 10.98583 34015 ft 463 kts 132°
2026-04-30 10:10 46.67791 11.01872 34192 ft 464 kts 132°
2026-04-30 10:11 46.65508 11.05116 34333 ft 465 kts 132°
2026-04-30 10:11 46.63196 11.08400 34529 ft 465 kts 133°
2026-04-30 10:11 46.60879 11.11690 34714 ft 465 kts 133°
2026-04-30 10:11 46.58563 11.14979 34889 ft 466 kts 133°
2026-04-30 10:12 46.56243 11.18274 35060 ft 467 kts 133°
2026-04-30 10:12 46.53921 11.21572 35207 ft 468 kts 133°
2026-04-30 10:12 46.51588 11.24877 35249 ft 470 kts 133°
2026-04-30 10:13 46.46897 11.31511 35247 ft 471 kts 132°
2026-04-30 10:13 46.42631 11.38698 35246 ft 470 kts 128°
2026-04-30 10:14 46.38423 11.45960 35248 ft 471 kts 128°
2026-04-30 10:14 46.32087 11.56863 35254 ft 472 kts 128°
2026-04-30 10:15 46.27852 11.64115 35260 ft 473 kts 128°
2026-04-30 10:15 46.23602 11.71378 35267 ft 473 kts 128°
2026-04-30 10:16 46.19346 11.78630 35279 ft 474 kts 128°
2026-04-30 10:17 46.12942 11.89513 35292 ft 475 kts 129°
2026-04-30 10:17 46.06513 12.00404 35302 ft 476 kts 129°
2026-04-30 10:18 46.02941 12.06429 35309 ft 477 kts 129°
2026-04-30 10:19 45.96466 12.17312 35314 ft 477 kts 129°
2026-04-30 10:19 45.92138 12.24554 35316 ft 478 kts 129°
2026-04-30 10:20 45.87812 12.31798 35314 ft 478 kts 129°
2026-04-30 10:20 45.81358 12.42735 35313 ft 479 kts 129°
2026-04-30 10:21 45.77049 12.50020 35309 ft 480 kts 129°
2026-04-30 10:21 45.72717 12.57297 35306 ft 480 kts 130°
2026-04-30 10:22 45.68379 12.64561 35308 ft 481 kts 130°